[[{"header":{"parameterUnit":"m.s-1","parameterCategory":1,"la1":30.2991,"la2":30.254,"lo1":-89.0895,"lo2":-89.0444,"dy":0.0017,"dx":0.0017,"nx":28,"ny":28,"refTime":"2023-09-28T09:00:00:Z","depth":0,"parameterNumber":2,"parameterNumberName":"U-component_of_WINDS"},"data":[0,0,0,0,0,0,0,0,0,0,0,0,0,0,0,0,0,0,0,0,0,0,0,0,0,0,0,0,0,0,0,0,0,0,0,0,0,0,0,0,0,0,0,0,0,0,0,0,0,0,0,0,0,0,0,0,0,0,-5.4077,-5.4077,0,-5.4103,-5.4103,-5.4103,-5.3979,-5.3976,-5.3972,-5.3969,-5.3997,-5.4001,-5.4005,0,0,0,0,0,0,0,0,0,0,0,0,0,-5.3925,-5.3928,-5.4077,-5.4077,-5.4078,-5.4102,-5.4103,-5.4103,-5.398,-5.3975,-5.3971,-5.3967,-5.3996,-5.4,-5.4005,0,0,0,0,0,0,0,0,0,0,0,0,0,-5.3975,-5.3929,-5.4077,-5.4019,-5.4014,-5.4102,-5.4103,-5.4103,-5.3981,-5.3975,-5.397,-5.3965,-5.3994,-5.4,-5.4006,-5.4152,0,0,-5.4025,-5.4028,0,0,0,0,0,0,0,0,-5.3972,-5.3981,-5.4027,-5.4023,-5.4018,-5.4032,-5.4059,-5.412,-5.3982,-5.3994,-5.3969,-5.3962,-5.4013,-5.4017,-5.4034,-5.4153,-5.4154,-5.4025,-5.4029,-5.4032,-5.4033,0,0,0,0,0,0,0,-5.3969,-5.3979,-5.4087,-5.4028,-5.4022,-5.3993,-5.3994,-5.407,-5.4033,-5.3992,-5.3983,-5.3988,-5.401,-5.4028,-5.4034,-5.4155,-5.4025,-5.4031,-5.4034,-5.4037,-5.4397,-5.4403,0,0,0,0,0,0,-5.3973,-5.3977,-5.4086,-5.4088,-5.3981,-5.4,-5.4001,-5.4033,-5.4032,-5.4027,-5.3992,-5.3982,-5.4021,-5.4027,-5.4034,-5.4206,-5.4032,-5.4037,-5.4041,-5.4392,-5.4399,-5.4405,0,0,0,0,0,0,-5.397,-5.3984,-5.4085,-5.403,-5.4041,-5.4008,-5.4045,-5.4036,-5.4055,-5.4032,-5.4025,-5.4018,-5.4017,-5.4026,-5.4124,-5.4206,-5.404,-5.4046,-5.4385,-5.4394,-5.4402,-5.4551,0,0,0,0,0,0,-5.3966,-5.3983,-5.4038,-5.4032,-5.4044,-5.4174,-5.405,-5.4041,-5.4066,-5.4052,-5.4055,-5.405,-5.4013,-5.4115,-5.413,-5.4211,-5.4051,-5.4377,-5.4389,-5.4399,-5.4539,-5.4564,-5.4586,0,0,0,0,0,-5.3961,-5.4078,-5.4041,-5.4055,-5.4111,-5.4179,-5.4186,-5.414,-5.4073,-5.4128,-5.4113,-5.405,-5.4195,-5.4127,-5.4142,-5.4226,-5.4372,-5.4386,-5.4398,-5.4529,-5.4559,-5.4585,0,0,0,0,0,0,-5.4094,-5.4077,-5.4035,-5.4153,-5.4169,-5.4158,-5.4225,-5.4174,-5.4209,-5.4195,-5.4137,-5.4139,-5.4248,-5.4247,-5.4171,-5.4369,-5.4272,-5.4289,-5.4365,-5.4394,-5.4417,-5.4416,-5.4056,0,0,0,0,0,-5.4138,-5.4193,-5.4175,-5.4282,-5.4292,-5.4258,-5.4285,-5.4249,-5.4263,-5.4269,-5.4261,-5.4278,-5.4327,-5.436,-5.4404,-5.4538,-5.4538,-5.4604,-5.4628,-5.4647,-5.4662,-5.4736,-5.4765,-5.4449,-5.4449,-5.4448,0,0,-5.4227,-5.4225,-5.4263,-5.4309,-5.4316,-5.4376,-5.4264,-5.4332,-5.4376,-5.4279,-5.4371,-5.4368,-5.4382,-5.45,-5.4551,-5.4502,-5.475,-5.4664,-5.4679,-5.4684,-5.4752,-5.4782,-5.4809,-5.4458,-5.4456,-5.4455,0,0,-5.4422,-5.4425,-5.4515,-5.4525,-5.4538,-5.4515,-5.4537,-5.4534,-5.4528,-5.462,-5.4549,-5.4602,-5.4687,-5.4701,-5.4719,-5.4923,-5.4866,-5.4939,-5.5061,-5.5133,-5.5158,-5.518,-5.5254,-5.5281,-5.4954,-5.4955,-5.4955,0,-5.4532,-5.4619,-5.4568,-5.4642,-5.4665,-5.458,-5.4672,-5.4684,-5.4711,-5.473,-5.4674,-5.4781,-5.4785,-5.4905,-5.4955,-5.4972,-5.4997,-5.4938,-5.5158,-5.518,-5.52,-5.527,-5.5298,-5.4963,-5.4962,-5.4961,-5.4961,0,-5.4755,-5.4817,-5.4888,-5.4917,-5.4948,-5.503,-5.4993,-5.5031,-5.4993,-5.4977,-5.5073,-5.5075,-5.5118,-5.5144,-5.5107,-5.5261,-5.523,-5.5168,-5.5069,-5.5239,-5.5304,-5.5331,-5.4976,-5.4973,-5.497,-5.4968,0,0,-5.5033,-5.5033,-5.5061,-5.5073,-5.5082,-5.513,-5.521,-5.5252,-5.5287,-5.5309,-5.5375,-5.5451,-5.5394,-5.5415,-5.5379,-5.5443,-5.5606,-5.5372,-5.5372,-5.5417,-5.5778,-5.5825,-5.5857,-5.5569,-5.5574,-5.5578,-5.5777,0,-5.5224,-5.5359,-5.5317,-5.5454,-5.5512,-5.5433,-5.5503,-5.5517,-5.5505,-5.5553,-5.5539,-5.5594,-5.5514,-5.5526,-5.5585,-5.5574,-5.5678,-5.5559,-5.5632,-5.5635,-5.5631,-5.5891,-5.5941,-5.6129,-5.5802,-5.5806,-5.5809,0,-5.5465,-5.5498,-5.5641,-5.5642,-5.5665,-5.5728,-5.5765,-5.5812,-5.5827,-5.5814,-5.5839,-5.5791,-5.5871,-5.5773,-5.5884,-5.5804,-5.5831,-5.5831,-5.5837,-5.5842,-5.5733,-5.5905,-5.6187,-5.6216,-5.5848,-5.5845,-5.5842,0,-5.5656,-5.5735,-5.5831,-5.5844,-5.5848,-5.5895,-5.5899,-5.5909,-5.5938,-5.5971,-5.599,-5.6032,-5.6055,-5.609,-5.6055,-5.5987,-5.6173,-5.6071,-5.6165,-5.6167,-5.6208,-5.6206,-5.65,-5.6225,-5.6225,-5.6224,-5.6223,0,-5.5874,-5.5965,-5.5917,-5.5976,-5.6077,-5.6028,-5.613,-5.6125,-5.6135,-5.6193,-5.6128,-5.6184,-5.6135,-5.6188,-5.6162,-5.6259,-5.6269,-5.6262,-5.6254,-5.6269,-5.627,-5.6286,-5.6273,-5.6231,-5.623,-5.6228,-5.6227,0,-5.6103,-5.6074,-5.6175,-5.6171,-5.6172,-5.6247,-5.6244,-5.6299,-5.6283,-5.6358,-5.6373,-5.6347,-5.6406,-5.6375,-5.6436,-5.6419,-5.6545,-5.6519,-5.654,-5.6533,-5.663,-5.6622,-5.6946,-5.6987,-5.6685,-5.6688,-5.669,0,-5.6245,-5.6313,-5.6317,-5.6352,-5.636,-5.6416,-5.6446,-5.6401,-5.6436,-5.646,-5.6514,-5.6567,-5.6607,-5.6705,-5.6693,-5.674,-5.6715,-5.6826,-5.6722,-5.6735,-5.6719,-5.6716,-5.6723,-5.6847,-5.685,-5.6853,-5.6856,0,-5.65,-5.6483,-5.6528,-5.657,-5.6607,-5.6638,-5.6662,-5.6695,-5.6651,-5.6693,-5.6752,-5.6784,-5.6847,-5.6901,-5.6943,-5.6948,-5.6896,-5.6889,-5.6913,-5.6929,-5.6939,-5.6936,-5.6598,-5.6881,-5.6879,-5.6877,-5.6875,-5.6874,-5.669,-5.6749,-5.6761,-5.6814,-5.6829,-5.6854,-5.6907,-5.6898,-5.6946,-5.6994,-5.6965,-5.7036,-5.7052,-5.7102,-5.7115,-5.717,-5.7126,-5.7162,-5.7171,-5.718,-5.7194,-5.693,-5.7177,-5.7177,-5.7176,-5.7175,-5.7175,0,-5.6943,-5.6948,-5.6998,-5.7035,-5.7078,-5.7025,-5.705,-5.709,-5.7153,-5.7172,-5.7213,-5.7283,-5.7336,-5.733,-5.7379,-5.7425,-5.7403,-5.7439,-5.7436,-5.7439,-5.723,-5.7204,-5.7457,-5.7457,-5.7457,-5.7457,-5.7457,-5.7457,-5.708,-5.7176,-5.7161,-5.7265,-5.7268,-5.7337,-5.7356,-5.7381,-5.7396,-5.7477,-5.7521,-5.7516,-5.7525,-5.7575,-5.7622,-5.7619,-5.7641,-5.7687,-5.7676,-5.7481,-5.7453,-5.7426,-5.7402,-5.7692,-5.7692,-5.7879,-5.7881,-5.7883]},{"header":{"parameterUnit":"m.s-1","parameterCategory":1,"la1":30.2991,"la2":30.254,"lo1":-89.0895,"lo2":-89.0444,"dy":0.0017,"dx":0.0017,"nx":28,"ny":28,"refTime":"2023-09-28T09:00:00:Z","depth":0,"parameterNumber":3,"parameterNumberName":"V-component_of_WINDS"},"data":[0,0,0,0,0,0,0,0,0,0,0,0,0,0,0,0,0,0,0,0,0,0,0,0,0,0,0,0,0,0,0,0,0,0,0,0,0,0,0,0,0,0,0,0,0,0,0,0,0,0,0,0,0,0,0,0,0,0,-0.4743,-0.4743,0,-0.4768,-0.4769,-0.4769,-0.4724,-0.4722,-0.472,-0.4719,-0.4747,-0.4749,-0.4752,0,0,0,0,0,0,0,0,0,0,0,0,0,-0.4657,-0.4659,-0.4743,-0.4744,-0.4744,-0.4768,-0.4769,-0.4769,-0.4724,-0.4722,-0.472,-0.4718,-0.4747,-0.4749,-0.4752,0,0,0,0,0,0,0,0,0,0,0,0,0,-0.469,-0.466,-0.4743,-0.4724,-0.4723,-0.4768,-0.4769,-0.4769,-0.4724,-0.4722,-0.472,-0.4717,-0.4746,-0.4749,-0.4752,-0.4818,0,0,-0.4762,-0.4764,0,0,0,0,0,0,0,0,-0.4688,-0.4693,-0.4727,-0.4726,-0.4724,-0.474,-0.4749,-0.4786,-0.4725,-0.4724,-0.4719,-0.4716,-0.4747,-0.475,-0.476,-0.482,-0.4821,-0.4762,-0.4764,-0.4766,-0.4767,0,0,0,0,0,0,0,-0.4686,-0.4692,-0.4753,-0.4727,-0.4726,-0.4715,-0.4717,-0.4756,-0.4748,-0.4724,-0.472,-0.4724,-0.4746,-0.4757,-0.476,-0.4821,-0.4762,-0.4765,-0.4767,-0.4769,-0.4937,-0.4939,0,0,0,0,0,0,-0.4686,-0.469,-0.4752,-0.4754,-0.47,-0.4718,-0.4721,-0.4738,-0.4747,-0.4747,-0.4726,-0.4722,-0.4752,-0.4756,-0.4761,-0.484,-0.4766,-0.4769,-0.4771,-0.4934,-0.4937,-0.494,0,0,0,0,0,0,-0.4684,-0.4692,-0.4751,-0.4721,-0.4728,-0.4722,-0.4742,-0.4739,-0.475,-0.4749,-0.4748,-0.4738,-0.4751,-0.4756,-0.4804,-0.484,-0.477,-0.4773,-0.4931,-0.4935,-0.4939,-0.4998,0,0,0,0,0,0,-0.4682,-0.4691,-0.4716,-0.4722,-0.473,-0.4794,-0.4744,-0.4741,-0.4756,-0.475,-0.476,-0.476,-0.4749,-0.48,-0.4808,-0.4844,-0.4776,-0.4928,-0.4933,-0.4937,-0.4993,-0.5004,-0.5013,0,0,0,0,0,-0.4679,-0.4732,-0.4718,-0.4726,-0.4761,-0.4796,-0.4801,-0.4787,-0.4759,-0.4784,-0.4783,-0.476,-0.4834,-0.4805,-0.4813,-0.4851,-0.4926,-0.4932,-0.4937,-0.4989,-0.5002,-0.5012,0,0,0,0,0,0,-0.4732,-0.4733,-0.4717,-0.4774,-0.4785,-0.4788,-0.482,-0.4801,-0.4821,-0.4816,-0.4798,-0.48,-0.4852,-0.4856,-0.4823,-0.4916,-0.4876,-0.4883,-0.4912,-0.4924,-0.4934,-0.4933,-0.4779,0,0,0,0,0,-0.475,-0.4779,-0.4778,-0.4828,-0.4835,-0.4826,-0.4841,-0.4829,-0.4841,-0.4846,-0.4848,-0.4861,-0.4887,-0.4906,-0.493,-0.4992,-0.4995,-0.5022,-0.5032,-0.504,-0.5048,-0.5082,-0.5095,-0.4959,-0.4958,-0.4958,0,0,-0.4789,-0.4793,-0.4812,-0.4839,-0.4846,-0.4877,-0.4831,-0.4865,-0.4888,-0.4851,-0.4897,-0.4899,-0.4912,-0.4968,-0.4993,-0.4973,-0.5085,-0.5047,-0.5054,-0.5057,-0.5089,-0.5102,-0.5114,-0.4962,-0.4962,-0.4961,0,0,-0.4875,-0.488,-0.4923,-0.4931,-0.4942,-0.4936,-0.4946,-0.4952,-0.4952,-0.4997,-0.4971,-0.4997,-0.5043,-0.5053,-0.5065,-0.5153,-0.5133,-0.5161,-0.5213,-0.5247,-0.5258,-0.5267,-0.5301,-0.5313,-0.5168,-0.5168,-0.5169,0,-0.4922,-0.4966,-0.4947,-0.4984,-0.4997,-0.4963,-0.5007,-0.5016,-0.5035,-0.5045,-0.5022,-0.5078,-0.5085,-0.5143,-0.5164,-0.5174,-0.5186,-0.5162,-0.5258,-0.5267,-0.5276,-0.5307,-0.532,-0.5172,-0.5172,-0.5171,-0.5171,0,-0.5024,-0.5055,-0.5088,-0.5107,-0.5123,-0.5163,-0.5151,-0.517,-0.5156,-0.5152,-0.5199,-0.5204,-0.523,-0.5242,-0.5229,-0.5299,-0.5286,-0.526,-0.522,-0.5293,-0.5322,-0.5334,-0.5177,-0.5176,-0.5175,-0.5174,0,0,-0.5147,-0.5153,-0.5166,-0.5174,-0.5184,-0.5208,-0.5246,-0.5269,-0.5286,-0.53,-0.5333,-0.5371,-0.5347,-0.536,-0.5347,-0.5377,-0.5448,-0.5348,-0.5348,-0.5368,-0.5527,-0.5548,-0.5562,-0.5433,-0.5436,-0.5437,-0.5527,0,-0.5234,-0.5299,-0.5283,-0.5348,-0.5377,-0.5345,-0.5378,-0.5388,-0.5385,-0.5409,-0.5406,-0.5435,-0.54,-0.5408,-0.5435,-0.5434,-0.548,-0.5427,-0.5465,-0.5467,-0.5466,-0.5577,-0.56,-0.5684,-0.5538,-0.554,-0.5541,0,-0.5345,-0.5362,-0.543,-0.5434,-0.5446,-0.5476,-0.5497,-0.552,-0.553,-0.5526,-0.5539,-0.5521,-0.5559,-0.5516,-0.5569,-0.5533,-0.5547,-0.5549,-0.5552,-0.5557,-0.551,-0.5588,-0.571,-0.5724,-0.5559,-0.5557,-0.5556,0,-0.543,-0.547,-0.5516,-0.5524,-0.553,-0.5552,-0.5556,-0.5563,-0.5578,-0.5596,-0.5606,-0.5627,-0.564,-0.5658,-0.5646,-0.5615,-0.5702,-0.5657,-0.5701,-0.5701,-0.5723,-0.5722,-0.5852,-0.5728,-0.5728,-0.5727,-0.5727,0,-0.5531,-0.5574,-0.5555,-0.5584,-0.5631,-0.5612,-0.5659,-0.5659,-0.5666,-0.5695,-0.5667,-0.5695,-0.5676,-0.5702,-0.5693,-0.5739,-0.5744,-0.5743,-0.5741,-0.5747,-0.5748,-0.5758,-0.5753,-0.5731,-0.573,-0.5729,-0.5729,0,-0.5636,-0.5624,-0.5673,-0.5674,-0.5675,-0.571,-0.5711,-0.5738,-0.5732,-0.5768,-0.5776,-0.5767,-0.5796,-0.5785,-0.5816,-0.581,-0.587,-0.5858,-0.5867,-0.5865,-0.5909,-0.5906,-0.6052,-0.6071,-0.5933,-0.5934,-0.5936,0,-0.5702,-0.5735,-0.5739,-0.5755,-0.5761,-0.5788,-0.5803,-0.5784,-0.5801,-0.5815,-0.584,-0.5866,-0.5887,-0.5935,-0.5932,-0.5956,-0.5946,-0.5996,-0.595,-0.5955,-0.595,-0.5949,-0.5953,-0.6006,-0.6007,-0.6009,-0.601,0,-0.5821,-0.5814,-0.5836,-0.5857,-0.5875,-0.589,-0.5903,-0.5918,-0.59,-0.5921,-0.595,-0.5965,-0.5996,-0.6024,-0.6044,-0.6049,-0.6027,-0.6024,-0.6035,-0.6044,-0.6048,-0.6048,-0.5894,-0.6021,-0.602,-0.6019,-0.6019,-0.6018,-0.5911,-0.5938,-0.5945,-0.5971,-0.5978,-0.5991,-0.6016,-0.6013,-0.6037,-0.606,-0.6047,-0.6082,-0.609,-0.6116,-0.6123,-0.615,-0.6131,-0.6147,-0.6152,-0.6157,-0.6164,-0.6041,-0.6153,-0.6153,-0.6153,-0.6152,-0.6152,0,-0.603,-0.6033,-0.6056,-0.6075,-0.6095,-0.6071,-0.6084,-0.6103,-0.6133,-0.6142,-0.6163,-0.6196,-0.6222,-0.622,-0.6244,-0.6266,-0.6257,-0.6273,-0.6273,-0.6274,-0.6178,-0.6167,-0.628,-0.628,-0.628,-0.628,-0.628,-0.628,-0.6095,-0.6141,-0.6134,-0.6183,-0.6185,-0.6218,-0.6228,-0.6239,-0.6247,-0.6285,-0.6306,-0.6304,-0.631,-0.6333,-0.6356,-0.6355,-0.6366,-0.6387,-0.6382,-0.6293,-0.6281,-0.6269,-0.6258,-0.6389,-0.6389,-0.6476,-0.6477,-0.6478]}]]